Location: *
(43.9905°S, 176.4941°W)
Time: 06:14:35
(UTC+00:00)

Cosmos 1242 Rocket - Pass Details

Date: 08 December 2019
Orbit: 449 x 487 km, 81.2° (Epoch: 19 January)

Event Time Altitude Azimuth Distance (km) Brightness Sun altitude
Rises 10:51:51 0° 195° (SSW) 2,606 7.8 -22.5°
Reaches altitude 10° 10:54:01 10° 200° (SSW) 1,716 6.4 -22.6°
Enters shadow 10:57:30 52° 263° (W) 631 3.1 -22.7°
